Location: Unspecified
(48.7670°N, 0.0000°E)
Time: 14:57:58
(UTC+00:00)

Vanguard 2 Rocket - Pass Details

Date: 18 June 2019
Orbit: 553 x 3327 km, 32.9° (Epoch: 20 August)

Event Time Altitude Azimuth Distance (km) Brightness Sun altitude
Rises 01:22:50 0° 255° (WSW) 5,446 10.5 -15.6°
Reaches altitude 10° 01:26:08 10° 249° (WSW) 4,774 10.2 -15.4°
Maximum altitude 01:39:41 45° 183° (S) 3,680 9.5 -14.5°
Drops below altitude 10° 01:57:54 10° 120° (ESE) 6,283 11.1 -13.3°
Sets 02:03:03 0° 115° (ESE) 7,245 11.5 -12.9°
